Regional Weather Roundup
Issued by NWS

Home | Current Version | Previous Version | Text Only | Print | Product List | Glossary On
Versions: 1 2 3 4 5 6 7 8 9 10 11 12 13 14 15 16 17 18 19 20 21 22 23 24 25 26 27 28 29 30 31 32 33 34 35 36 37 38 39 40 41 42 43 44 45 46 47 48 49 50
000
ASUS43 KTOP 271308
RWRKS

WEATHER ROUNDUP FOR KANSAS
NATIONAL WEATHER SERVICE GOODLAND KS
700 AM CST SAT DEC 27 2014

NOTE:  "FAIR" INDICATES FEW OR NO CLOUDS BELOW 12,000 FEET WITH NO
SIGNIFICANT WEATHER AND/OR OBSTRUCTIONS TO VISIBILITY.

KSZ001>006-013>018-027>032-041>047-271400-
NORTHWEST KANSAS

CITY           SKY/WX    TMP DP  RH WIND       PRES   REMARKS
GOODLAND       PTCLDY     6   3  87 W10       30.20R WCI  -9
HAYS           PTCLDY    14   3  62 NW12      30.24R WCI   0
HILL CITY      MOCLDY     9   5  84 W8        30.27R
RUSSELL        PTCLDY    15  12  88 NW9       30.24R
$$

KSZ061>065-074>080-084>089-271400-
SOUTHWEST KANSAS

CITY           SKY/WX    TMP DP  RH WIND       PRES   REMARKS
DODGE CITY     PTCLDY    16  11  80 NW7       30.25R
ELKHART          N/A     13   6  74 NW9         N/A
GARDEN CITY    MOCLDY    11   8  88 NW12      30.24R WCI  -3
GREAT BEND     MOCLDY    18  10  73 NW8       30.27S
LIBERAL        MOCLDY    18  10  73 NW12      30.27R WCI   5
PRATT          PTCLDY    21  18  86 N10       30.26R WCI  10
$$

KSZ066>073-081>083-090>101-271400-
SOUTHEAST KANSAS

CITY           SKY/WX    TMP DP  RH WIND       PRES   REMARKS
CHANUTE        CLOUDY    32  26  78 NW12      30.25R WCI  23
COFFEYVILLE    LGT SNOW  33  28  81 NW17      30.24R WCI  22
HUTCHINSON     CLOUDY    23  17  78 N9        30.24R
MEDICINE LODGE   N/A     25  18  74 NW10      30.30R WCI  15
NEWTON         CLOUDY    25  16  68 N15       30.22F WCI  12
PARSONS        FLURRIES  34  28  79 NW12      30.26R WCI  25
WICHITA INTL   CLOUDY    28  19  69 N10       30.26R WCI  19
WICHITA JABRA  CLOUDY    26  19  74 NW14      30.24R WCI  14
WICHITA MCCONL CLOUDY    27  20  73 N10       30.25R WCI  17
WINFIELD       CLOUDY    30  22  72 N14       30.26R WCI  19
$$

KSZ007>012-019>026-033>040-048>060-102>105-271400-
NORTHEAST KANSAS

CITY           SKY/WX    TMP DP  RH WIND       PRES   REMARKS
CONCORDIA      PTCLDY    19  15  84 NW12      30.23R WCI   7
EMPORIA        CLOUDY    26  22  84 NW12      30.23R WCI  16
LAWRENCE       CLOUDY    29  24  82 W10       30.21R WCI  20
MANHATTAN      CLOUDY    25  19  78 NW7       30.26R
MARYSVILLE     PTCLDY    23  19  86 NW13      30.21R WCI  11
OLATHE IND     CLOUDY    30  26  85 W15G21    30.23R WCI  19
OLATHE EXE     FLURRIES  31  25  78 W12       30.20R WCI  22
SALINA         PTCLDY    23  17  78 NW12      30.27R WCI  12
TOPEKA BILLARD CLOUDY    30  23  75 W12G18    30.23R WCI  20
TOPEKA FORBES  CLOUDY    29  23  78 NW13      30.20S WCI  19
$$


USA.gov is the U.S. government's official web portal to all federal, state and local government web resources and services.